Date String (YYYY-MM-DD hh:mm:ss) UTC,Instrument flags,Ambient pressure (hPa),Sample flow (lpm),Bypass flow (lpm),Sample temperature (°C),Ambient temperature (°C),ASC tube jacket temperature (°C),LED temperature (°C),Box temperature (°C),Sample RH (%),Span deviation,Mass concentration (μg/m³),Mass concentration (μg/m³),Mass concentration (μg/m³)
DateTimeUTC,F1_M11,P_M11,Q1_M11,Q2_M11,T1_M11,T2_M11,T3_M11,T4_M11,T5_M11,U1_M11,ZSPAN_M11,X0_M11,X2_M11,X1_M11
2022-02-21 03:00:00,,0815.9,5.00,0.00,26.9,26.0,00.0,36.0,28.6,04.5,0000.0,0002.95,0000.75,0000.54
2022-02-21 03:01:00,,0816.0,5.01,0.00,26.8,26.0,00.0,36.0,28.6,04.5,0000.0,0002.44,0000.76,0000.54
2022-02-21 03:02:00,,0815.9,5.00,0.00,26.8,26.0,00.0,35.9,28.6,04.5,0000.0,0001.85,0000.76,0000.53
2022-02-21 03:03:00,,0815.9,4.99,0.00,26.8,26.0,00.0,35.9,28.6,04.4,0000.0,0001.51,0000.75,0000.52
2022-02-21 03:04:00,,0815.7,5.02,0.00,26.8,25.9,00.0,35.9,28.5,04.2,0000.0,0001.41,0000.69,0000.51
2022-02-21 03:05:00,,0815.6,4.99,0.00,26.7,25.9,00.0,35.9,28.4,04.2,0000.0,0001.51,0000.70,0000.49
2022-02-21 03:06:00,,0815.9,5.01,0.00,26.7,25.8,00.0,35.9,28.4,04.3,0000.0,0001.56,0000.72,0000.49
2022-02-21 03:07:00,,0815.7,5.01,0.00,26.6,25.7,00.0,35.9,28.3,04.2,0000.0,0001.70,0000.73,0000.49
2022-02-21 03:08:00,,0815.4,4.99,0.00,26.6,25.7,00.0,35.8,28.3,04.3,0000.0,0001.77,0000.73,0000.49
2022-02-21 03:09:00,,0815.6,5.02,0.00,26.6,25.6,00.0,35.8,28.2,04.6,0000.0,0001.75,0000.73,0000.49
2022-02-21 03:10:00,,0815.7,4.99,0.00,26.5,25.6,00.0,35.8,28.2,04.7,0000.0,0001.79,0000.75,0000.48
2022-02-21 03:11:00,,0815.6,5.01,0.00,26.5,25.6,00.0,35.8,28.2,04.5,0000.0,0001.75,0000.72,0000.48
2022-02-21 03:12:00,,0815.9,5.01,0.00,26.5,25.6,00.0,35.7,28.2,04.5,0000.0,0001.58,0000.72,0000.47
2022-02-21 03:13:00,,0816.0,5.00,0.00,26.5,25.7,00.0,35.7,28.3,04.9,0000.0,0001.58,0000.73,0000.47
2022-02-21 03:14:00,,0815.6,5.01,0.00,26.5,25.7,00.0,35.7,28.2,04.9,0000.0,0001.51,0000.72,0000.48
2022-02-21 03:15:00,,0815.5,4.99,0.00,26.5,25.7,00.0,35.7,28.2,04.9,0000.0,0001.48,0000.73,0000.48
2022-02-21 03:16:00,,0815.4,5.00,0.00,26.5,25.7,00.0,35.7,28.3,04.9,0000.0,0001.40,0000.73,0000.50
2022-02-21 03:17:00,,0815.3,5.01,0.00,26.5,25.7,00.0,35.7,28.3,05.1,0000.0,0001.32,0000.71,0000.52
2022-02-21 03:18:00,,0815.4,4.99,0.00,26.5,25.7,00.0,35.7,28.3,04.9,0000.0,0001.24,0000.69,0000.53
2022-02-21 03:19:00,,0815.3,4.99,0.00,26.5,25.7,00.0,35.7,28.3,04.5,0000.0,0001.01,0000.69,0000.53
2022-02-21 03:20:00,,0815.3,5.01,0.00,26.5,25.7,00.0,35.6,28.2,04.5,0000.0,0001.06,0000.70,0000.53
2022-02-21 03:21:00,,0815.3,5.00,0.00,26.4,25.6,00.0,35.6,28.1,04.6,0000.0,0001.06,0000.70,0000.53
2022-02-21 03:22:00,,0815.3,5.00,0.00,26.4,25.5,00.0,35.6,28.1,04.6,0000.0,0001.21,0000.70,0000.53
2022-02-21 03:23:00,,0815.3,5.01,0.00,26.3,25.4,00.0,35.6,28.0,04.6,0000.0,0001.42,0000.72,0000.54
2022-02-21 03:24:00,,0815.2,4.99,0.00,26.3,25.4,00.0,35.5,28.0,04.7,0000.0,0001.63,0000.73,0000.55
2022-02-21 03:25:00,,0815.2,5.00,0.00,26.3,25.4,00.0,35.5,28.0,04.7,0000.0,0001.64,0000.73,0000.55
2022-02-21 03:26:00,,0815.3,5.01,0.00,26.3,25.4,00.0,35.5,28.0,04.5,0000.0,0001.62,0000.72,0000.55
2022-02-21 03:27:00,,0815.3,5.00,0.00,26.2,25.4,00.0,35.5,27.9,04.7,0000.0,0001.56,0000.69,0000.54
2022-02-21 03:28:00,,0815.2,5.02,0.00,26.2,25.3,00.0,35.4,27.9,04.6,0000.0,0001.57,0000.68,0000.53
2022-02-21 03:29:00,,0815.2,4.98,0.00,26.2,25.3,00.0,35.4,27.8,04.5,0000.0,0001.58,0000.68,0000.51
2022-02-21 03:30:00,,0815.3,5.01,0.00,26.1,25.2,00.0,35.4,27.8,04.4,0000.0,0001.56,0000.67,0000.51
2022-02-21 03:31:00,,0815.2,5.00,0.00,26.1,25.2,00.0,35.4,27.7,04.4,0000.0,0001.56,0000.67,0000.51
2022-02-21 03:32:00,,0815.2,4.99,0.00,26.1,25.1,00.0,35.3,27.7,04.3,0000.0,0001.92,0000.68,0000.51
2022-02-21 03:33:00,,0815.3,5.02,0.00,26.0,25.1,00.0,35.3,27.7,04.4,0000.0,0002.05,0000.68,0000.51
2022-02-21 03:34:00,,0815.2,4.99,0.00,26.0,25.0,00.0,35.3,27.6,04.4,0000.0,0001.75,0000.69,0000.50
2022-02-21 03:35:00,,0815.2,5.00,0.00,25.9,25.0,00.0,35.2,27.6,04.5,0000.0,0001.49,0000.65,0000.50
2022-02-21 03:36:00,,0815.2,4.99,0.00,25.9,25.0,00.0,35.2,27.6,04.6,0000.0,0001.42,0000.63,0000.49
2022-02-21 03:37:00,,0815.2,5.01,0.00,25.9,24.9,00.0,35.2,27.5,04.5,0000.0,0001.39,0000.63,0000.49
2022-02-21 03:38:00,,0815.2,4.99,0.00,25.8,24.9,00.0,35.1,27.5,04.5,0000.0,0001.41,0000.63,0000.49
2022-02-21 03:39:00,,0815.2,5.01,0.00,25.8,24.9,00.0,35.1,27.5,04.5,0000.0,0001.47,0000.63,0000.49
2022-02-21 03:40:00,,0815.2,5.01,0.00,25.8,24.9,00.0,35.1,27.5,04.5,0000.0,0001.55,0000.65,0000.50
2022-02-21 03:41:00,,0815.2,4.98,0.00,25.7,24.9,00.0,35.1,27.4,04.6,0000.0,0001.65,0000.67,0000.50
2022-02-21 03:42:00,,0815.2,5.01,0.00,25.7,24.9,00.0,35.0,27.4,04.7,0000.0,0001.73,0000.67,0000.50
2022-02-21 03:43:00,,0815.2,5.00,0.00,25.7,24.8,00.0,35.0,27.4,04.9,0000.0,0001.35,0000.65,0000.49
2022-02-21 03:44:00,,0815.2,4.99,0.00,25.7,24.9,00.0,35.0,27.4,04.9,0000.0,0001.16,0000.64,0000.50
2022-02-21 03:45:00,,0815.2,5.02,0.00,25.7,24.9,00.0,35.0,27.5,04.9,0000.0,0001.26,0000.63,0000.49
2022-02-21 03:46:00,,0815.2,5.01,0.00,25.7,24.9,00.0,34.9,27.5,05.0,0000.0,0002.46,0000.65,0000.49
2022-02-21 03:47:00,,0815.2,4.99,0.00,25.7,24.9,00.0,34.9,27.5,04.9,0000.0,0002.62,0000.69,0000.50
2022-02-21 03:48:00,,0815.2,4.99,0.00,25.7,24.9,00.0,34.9,27.4,04.7,0000.0,0002.90,0000.69,0000.50
2022-02-21 03:49:00,,0815.2,5.01,0.00,25.7,24.9,00.0,34.9,27.4,05.0,0000.0,0002.96,0000.70,0000.51
2022-02-21 03:50:00,,0815.4,5.01,0.00,25.7,24.9,00.0,34.9,27.4,04.9,0000.0,0002.94,0000.72,0000.52
2022-02-21 03:51:00,,0815.1,4.98,0.00,25.7,24.9,00.0,34.9,27.4,04.7,0000.0,0002.86,0000.71,0000.53
2022-02-21 03:52:00,,0815.4,5.01,0.00,25.7,24.9,00.0,34.8,27.4,04.8,0000.0,0002.77,0000.70,0000.55
2022-02-21 03:53:00,,0815.1,5.00,0.00,25.7,24.9,00.0,34.8,27.4,05.0,0000.0,0002.67,0000.70,0000.56
2022-02-21 03:54:00,,0815.1,4.99,0.00,25.7,24.9,00.0,34.8,27.5,05.1,0000.0,0002.65,0000.71,0000.57
2022-02-21 03:55:00,,0815.1,4.99,0.00,25.7,25.0,00.0,34.8,27.5,05.1,0000.0,0002.68,0000.72,0000.58
2022-02-21 03:56:00,,0815.1,5.02,0.00,25.7,25.0,00.0,34.8,27.5,05.0,0000.0,0002.65,0000.73,0000.59
2022-02-21 03:57:00,,0815.1,4.99,0.00,25.7,25.0,00.0,34.8,27.5,05.0,0000.0,0001.72,0000.77,0000.61
2022-02-21 03:58:00,,0815.1,4.99,0.00,25.7,25.1,00.0,34.8,27.5,05.0,0000.0,0001.56,0000.77,0000.62
2022-02-21 03:59:00,,0815.1,5.02,0.00,25.8,25.1,00.0,34.8,27.5,04.9,0000.0,0002.36,0000.77,0000.63
